Location: Dannhausen
(51.8650°N, 10.1026°E)
Time: 16:00:44
(UTC+00:00)

Cosmos 1241 Rocket - Pass Details

Date: 09 April 2020
Orbit: 939 x 1009 km, 65.8° (Epoch: 02 June)

Event Time Altitude Azimuth Distance (km) Brightness Sun altitude
Rises 22:07:38 0° 318° (NW) 3,624 8.5 -28.1°
Reaches altitude 10° 22:10:11 10° 321° (NW) 2,683 7.7 -28.2°
Maximum altitude 22:16:27 72° 46° (NE) 1,012 4.5 -28.5°
Enters shadow 22:17:06 66° 88° (E) 1,045 4.5 -28.6°
